Data supplied by UK-AIR on 26/3/2020
All Data GMT hour ending 
Status: R =Ratified P=Provisional,P*=As supplied
,,Worthing A27 Roadside,,,,,,,,,,,,,,,,,,,,,,,
Date,time,"Nitric oxide",status,unit,"Nitrogen dioxide",status,unit,"Nitrogen oxides as nitrogen dioxide",status,unit,"PM<sub>2.5</sub> particulate matter (Hourly measured)",status,unit
 
01-01-2019,01:00,16.20370,R,ugm-3,19.56539,R,ugm-3,44.41071,R,ugm-3,17.000,R,ugm-3 (BAM)
01-01-2019,02:00,14.16121,R,ugm-3,26.77777,R,ugm-3,48.49133,R,ugm-3,11.000,R,ugm-3 (BAM)
01-01-2019,03:00,,,,,,,,,,12.000,R,ugm-3 (BAM)
01-01-2019,04:00,,,,,,,,,,7.000,R,ugm-3 (BAM)
01-01-2019,05:00,,,,,,,,,,5.000,R,ugm-3 (BAM)
01-01-2019,06:00,,,,,,,,,,6.000,R,ugm-3 (BAM)
01-01-2019,07:00,,,,,,,,,,7.000,R,ugm-3 (BAM)
01-01-2019,08:00,,,,,,,,,,6.000,R,ugm-3 (BAM)
01-01-2019,09:00,,,,,,,,,,6.000,R,ugm-3 (BAM)
01-01-2019,10:00,,,,,,,,,,6.000,R,ugm-3 (BAM)
01-01-2019,11:00,,,,,,,,,,5.000,R,ugm-3 (BAM)
01-01-2019,12:00,,,,,,,,,,8.000,R,ugm-3 (BAM)
01-01-2019,13:00,,,,,,,,,,6.000,R,ugm-3 (BAM)
01-01-2019,14:00,,,,,,,,,,10.000,R,ugm-3 (BAM)
01-01-2019,15:00,,,,,,,,,,7.000,R,ugm-3 (BAM)
01-01-2019,16:00,,,,,,,,,,8.000,R,ugm-3 (BAM)
01-01-2019,17:00,,,,,,,,,,8.000,R,ugm-3 (BAM)
01-01-2019,18:00,,,,,,,,,,16.000,R,ugm-3 (BAM)
01-01-2019,19:00,,,,,,,,,,10.000,R,ugm-3 (BAM)
01-01-2019,20:00,,,,,,,,,,11.000,R,ugm-3 (BAM)
01-01-2019,21:00,,,,,,,,,,12.000,R,ugm-3 (BAM)
01-01-2019,22:00,,,,,,,,,,9.000,R,ugm-3 (BAM)
01-01-2019,23:00,,,,,,,,,,5.000,R,ugm-3 (BAM)
01-01-2019,24:00,,,,,,,,,,6.000,R,ugm-3 (BAM)
02-01-2019,01:00,,,,,,,,,,9.000,R,ugm-3 (BAM)
02-01-2019,02:00,,,,,,,,,,6.000,R,ugm-3 (BAM)
02-01-2019,03:00,,,,,,,,,,5.000,R,ugm-3 (BAM)
02-01-2019,04:00,,,,,,,,,,5.000,R,ugm-3 (BAM)
02-01-2019,05:00,,,,,,,,,,5.000,R,ugm-3 (BAM)
02-01-2019,06:00,,,,,,,,,,9.000,R,ugm-3 (BAM)
02-01-2019,07:00,,,,,,,,,,10.000,R,ugm-3 (BAM)
02-01-2019,08:00,,,,,,,,,,10.000,R,ugm-3 (BAM)
02-01-2019,09:00,,,,,,,,,,9.000,R,ugm-3 (BAM)
02-01-2019,10:00,,,,,,,,,,9.000,R,ugm-3 (BAM)
02-01-2019,11:00,,,,,,,,,,8.000,R,ugm-3 (BAM)
02-01-2019,12:00,,,,,,,,,,13.000,R,ugm-3 (BAM)
02-01-2019,13:00,,,,,,,,,,10.000,R,ugm-3 (BAM)
02-01-2019,14:00,,,,,,,,,,11.000,R,ugm-3 (BAM)
02-01-2019,15:00,,,,,,,,,,14.000,R,ugm-3 (BAM)
02-01-2019,16:00,,,,,,,,,,11.000,R,ugm-3 (BAM)
02-01-2019,17:00,,,,,,,,,,7.000,R,ugm-3 (BAM)
02-01-2019,18:00,55.93555,R,ugm-3,55.07271,R,ugm-3,140.83935,R,ugm-3,11.000,R,ugm-3 (BAM)
02-01-2019,19:00,51.52795,R,ugm-3,63.80595,R,ugm-3,142.81437,R,ugm-3,12.000,R,ugm-3 (BAM)
02-01-2019,20:00,56.53761,R,ugm-3,58.57632,R,ugm-3,145.26612,R,ugm-3,12.000,R,ugm-3 (BAM)
02-01-2019,21:00,42.87180,R,ugm-3,51.89702,R,ugm-3,117.63287,R,ugm-3,12.000,R,ugm-3 (BAM)
02-01-2019,22:00,34.65868,R,ugm-3,55.60271,R,ugm-3,108.74528,R,ugm-3,26.000,R,ugm-3 (BAM)
02-01-2019,23:00,43.89418,R,ugm-3,55.64152,R,ugm-3,122.94499,R,ugm-3,20.000,R,ugm-3 (BAM)
02-01-2019,24:00,29.75126,R,ugm-3,44.17734,R,ugm-3,89.79530,R,ugm-3,17.000,R,ugm-3 (BAM)
03-01-2019,01:00,14.96612,R,ugm-3,33.72481,R,ugm-3,56.67253,R,ugm-3,10.000,R,ugm-3 (BAM)
03-01-2019,02:00,9.27990,R,ugm-3,26.14423,R,ugm-3,40.37321,R,ugm-3,10.000,R,ugm-3 (BAM)
03-01-2019,03:00,10.64459,R,ugm-3,28.17771,R,ugm-3,44.49919,R,ugm-3,10.000,R,ugm-3 (BAM)
03-01-2019,04:00,11.49753,R,ugm-3,28.40435,R,ugm-3,46.03365,R,ugm-3,12.000,R,ugm-3 (BAM)
03-01-2019,05:00,18.93509,R,ugm-3,36.59011,R,ugm-3,65.62352,R,ugm-3,11.000,R,ugm-3 (BAM)
03-01-2019,06:00,46.09245,R,ugm-3,51.21276,R,ugm-3,121.88687,R,ugm-3,13.000,R,ugm-3 (BAM)
03-01-2019,07:00,94.09548,R,ugm-3,74.02406,R,ugm-3,218.30178,R,ugm-3,10.000,R,ugm-3 (BAM)
03-01-2019,08:00,68.37104,R,ugm-3,62.67719,R,ugm-3,167.51132,R,ugm-3,10.000,R,ugm-3 (BAM)
03-01-2019,09:00,64.07226,R,ugm-3,65.99505,R,ugm-3,164.23782,R,ugm-3,13.000,R,ugm-3 (BAM)
03-01-2019,10:00,92.66255,R,ugm-3,67.57709,R,ugm-3,209.65768,R,ugm-3,10.000,R,ugm-3 (BAM)
03-01-2019,11:00,90.34257,R,ugm-3,81.61978,R,ugm-3,220.14312,R,ugm-3,7.000,R,ugm-3 (BAM)
03-01-2019,12:00,53.56414,R,ugm-3,49.47454,R,ugm-3,131.60508,R,ugm-3,7.000,R,ugm-3 (BAM)
03-01-2019,13:00,58.85232,R,ugm-3,57.27330,R,ugm-3,147.51226,R,ugm-3,10.000,R,ugm-3 (BAM)
03-01-2019,14:00,78.84505,R,ugm-3,69.07146,R,ugm-3,189.96551,R,ugm-3,10.000,R,ugm-3 (BAM)
03-01-2019,15:00,66.90400,R,ugm-3,79.81083,R,ugm-3,182.39553,R,ugm-3,9.000,R,ugm-3 (BAM)
03-01-2019,16:00,111.39294,R,ugm-3,78.49764,R,ugm-3,249.29777,R,ugm-3,11.000,R,ugm-3 (BAM)
03-01-2019,17:00,52.81356,R,ugm-3,63.92403,R,ugm-3,144.90369,R,ugm-3,8.000,R,ugm-3 (BAM)
03-01-2019,18:00,55.88411,R,ugm-3,64.27961,R,ugm-3,149.96739,R,ugm-3,11.000,R,ugm-3 (BAM)
03-01-2019,19:00,67.10870,R,ugm-3,65.99376,R,ugm-3,168.89233,R,ugm-3,16.000,R,ugm-3 (BAM)
03-01-2019,20:00,62.29817,R,ugm-3,65.74869,R,ugm-3,161.27121,R,ugm-3,14.000,R,ugm-3 (BAM)
03-01-2019,21:00,61.20641,R,ugm-3,57.29528,R,ugm-3,151.14380,R,ugm-3,15.000,R,ugm-3 (BAM)
03-01-2019,22:00,41.41839,R,ugm-3,48.81479,R,ugm-3,112.32210,R,ugm-3,20.000,R,ugm-3 (BAM)
03-01-2019,23:00,18.38922,R,ugm-3,41.10981,R,ugm-3,69.30621,R,ugm-3,18.000,R,ugm-3 (BAM)
03-01-2019,24:00,11.19047,R,ugm-3,25.85740,R,ugm-3,43.01589,R,ugm-3,20.000,R,ugm-3 (BAM)
04-01-2019,01:00,8.01510,R,ugm-3,26.15867,R,ugm-3,38.44831,R,ugm-3,13.000,R,ugm-3 (BAM)
04-01-2019,02:00,8.19726,R,ugm-3,27.72324,R,ugm-3,40.29219,R,ugm-3,16.000,R,ugm-3 (BAM)
04-01-2019,03:00,6.69443,R,ugm-3,25.12761,R,ugm-3,35.39225,R,ugm-3,18.000,R,ugm-3 (BAM)
04-01-2019,04:00,8.70959,R,ugm-3,30.18154,R,ugm-3,43.53605,R,ugm-3,16.000,R,ugm-3 (BAM)
04-01-2019,05:00,17.24840,R,ugm-3,33.22283,R,ugm-3,59.67001,R,ugm-3,17.000,R,ugm-3 (BAM)
04-01-2019,06:00,52.01843,R,ugm-3,50.07940,R,ugm-3,129.83988,R,ugm-3,18.000,R,ugm-3 (BAM)
04-01-2019,07:00,107.28161,R,ugm-3,78.43502,R,ugm-3,242.93119,R,ugm-3,20.000,R,ugm-3 (BAM)
04-01-2019,08:00,109.12599,R,ugm-3,89.12879,R,ugm-3,256.45298,R,ugm-3,17.000,R,ugm-3 (BAM)
04-01-2019,09:00,107.14499,R,ugm-3,91.19313,R,ugm-3,255.47982,R,ugm-3,19.000,R,ugm-3 (BAM)
04-01-2019,10:00,112.06334,R,ugm-3,69.46413,R,ugm-3,241.29218,R,ugm-3,25.000,R,ugm-3 (BAM)
04-01-2019,11:00,113.22462,R,ugm-3,71.93469,R,ugm-3,245.54335,R,ugm-3,22.000,R,ugm-3 (BAM)
04-01-2019,12:00,120.80708,R,ugm-3,72.75460,R,ugm-3,257.98954,R,ugm-3,23.000,R,ugm-3 (BAM)
04-01-2019,13:00,98.12800,R,ugm-3,69.78038,R,ugm-3,220.24122,R,ugm-3,23.000,R,ugm-3 (BAM)
04-01-2019,14:00,69.88162,R,ugm-3,68.27437,R,ugm-3,175.42469,R,ugm-3,24.000,R,ugm-3 (BAM)
04-01-2019,15:00,95.83960,R,ugm-3,81.58667,R,ugm-3,228.53868,R,ugm-3,24.000,R,ugm-3 (BAM)
04-01-2019,16:00,84.56837,R,ugm-3,67.93278,R,ugm-3,197.60247,R,ugm-3,28.000,R,ugm-3 (BAM)
04-01-2019,17:00,59.12272,R,ugm-3,58.64949,R,ugm-3,149.30306,R,ugm-3,29.000,R,ugm-3 (BAM)
04-01-2019,18:00,56.04875,R,ugm-3,63.10675,R,ugm-3,149.04697,R,ugm-3,38.000,R,ugm-3 (BAM)
04-01-2019,19:00,52.39414,R,ugm-3,65.53484,R,ugm-3,145.87140,R,ugm-3,36.000,R,ugm-3 (BAM)
04-01-2019,20:00,65.03158,R,ugm-3,68.64279,R,ugm-3,168.35649,R,ugm-3,65.000,R,ugm-3 (BAM)
04-01-2019,21:00,66.22701,R,ugm-3,65.63179,R,ugm-3,167.17845,R,ugm-3,57.000,R,ugm-3 (BAM)
04-01-2019,22:00,53.31633,R,ugm-3,60.12576,R,ugm-3,141.87632,R,ugm-3,50.000,R,ugm-3 (BAM)
04-01-2019,23:00,39.96163,R,ugm-3,52.94448,R,ugm-3,114.21812,R,ugm-3,42.000,R,ugm-3 (BAM)
04-01-2019,24:00,26.12876,R,ugm-3,42.19400,R,ugm-3,82.25754,R,ugm-3,41.000,R,ugm-3 (BAM)
05-01-2019,01:00,19.83205,R,ugm-3,40.30210,R,ugm-3,70.71082,R,ugm-3,36.000,R,ugm-3 (BAM)
05-01-2019,02:00,10.30355,R,ugm-3,31.31920,R,ugm-3,47.11775,R,ugm-3,32.000,R,ugm-3 (BAM)
05-01-2019,03:00,8.58249,R,ugm-3,31.97493,R,ugm-3,45.13457,R,ugm-3,30.000,R,ugm-3 (BAM)
05-01-2019,04:00,10.42892,R,ugm-3,32.63145,R,ugm-3,48.62224,R,ugm-3,26.000,R,ugm-3 (BAM)
05-01-2019,05:00,17.13079,R,ugm-3,34.45967,R,ugm-3,60.72651,R,ugm-3,26.000,R,ugm-3 (BAM)
05-01-2019,06:00,16.61789,R,ugm-3,38.93893,R,ugm-3,64.41934,R,ugm-3,24.000,R,ugm-3 (BAM)
05-01-2019,07:00,44.21180,R,ugm-3,55.25251,R,ugm-3,123.04299,R,ugm-3,23.000,R,ugm-3 (BAM)
05-01-2019,08:00,71.22442,R,ugm-3,70.61097,R,ugm-3,179.82022,R,ugm-3,18.000,R,ugm-3 (BAM)
05-01-2019,09:00,83.26042,R,ugm-3,68.82504,R,ugm-3,196.48924,R,ugm-3,29.000,R,ugm-3 (BAM)
05-01-2019,10:00,73.95988,R,ugm-3,65.95506,R,ugm-3,179.35862,R,ugm-3,24.000,R,ugm-3 (BAM)
05-01-2019,11:00,87.09006,R,ugm-3,64.44040,R,ugm-3,197.97663,R,ugm-3,21.000,R,ugm-3 (BAM)
05-01-2019,12:00,70.64314,R,ugm-3,70.73292,R,ugm-3,179.05088,R,ugm-3,14.000,R,ugm-3 (BAM)
05-01-2019,13:00,63.29160,R,ugm-3,57.02724,R,ugm-3,154.07300,R,ugm-3,15.000,R,ugm-3 (BAM)
05-01-2019,14:00,82.88430,R,ugm-3,61.19547,R,ugm-3,188.28295,R,ugm-3,16.000,R,ugm-3 (BAM)
05-01-2019,15:00,64.00966,R,ugm-3,65.46604,R,ugm-3,163.61281,R,ugm-3,17.000,R,ugm-3 (BAM)
05-01-2019,16:00,67.94187,R,ugm-3,69.43813,R,ugm-3,173.61422,R,ugm-3,17.000,R,ugm-3 (BAM)
05-01-2019,17:00,68.14703,R,ugm-3,58.35281,R,ugm-3,162.84347,R,ugm-3,18.000,R,ugm-3 (BAM)
05-01-2019,18:00,57.54714,R,ugm-3,62.09116,R,ugm-3,150.32889,R,ugm-3,17.000,R,ugm-3 (BAM)
05-01-2019,19:00,59.39358,R,ugm-3,60.90126,R,ugm-3,151.97014,R,ugm-3,20.000,R,ugm-3 (BAM)
05-01-2019,20:00,25.47393,R,ugm-3,51.77384,R,ugm-3,90.83332,R,ugm-3,24.000,R,ugm-3 (BAM)
05-01-2019,21:00,28.85906,R,ugm-3,58.48250,R,ugm-3,102.73243,R,ugm-3,30.000,R,ugm-3 (BAM)
05-01-2019,22:00,26.97843,R,ugm-3,51.21081,R,ugm-3,92.57715,R,ugm-3,32.000,R,ugm-3 (BAM)
05-01-2019,23:00,25.50812,R,ugm-3,51.41367,R,ugm-3,90.52558,R,ugm-3,35.000,R,ugm-3 (BAM)
05-01-2019,24:00,29.16679,R,ugm-3,47.75278,R,ugm-3,92.47458,R,ugm-3,30.000,R,ugm-3 (BAM)
06-01-2019,01:00,16.43095,R,ugm-3,38.69767,R,ugm-3,63.89144,R,ugm-3,25.000,R,ugm-3 (BAM)
06-01-2019,02:00,8.71753,R,ugm-3,30.80263,R,ugm-3,44.16932,R,ugm-3,25.000,R,ugm-3 (BAM)
06-01-2019,03:00,17.86866,R,ugm-3,30.38141,R,ugm-3,57.77964,R,ugm-3,25.000,R,ugm-3 (BAM)
06-01-2019,04:00,8.52356,R,ugm-3,26.22088,R,ugm-3,39.29015,R,ugm-3,26.000,R,ugm-3 (BAM)
06-01-2019,05:00,15.30132,R,ugm-3,30.82548,R,ugm-3,54.28718,R,ugm-3,27.000,R,ugm-3 (BAM)
06-01-2019,06:00,8.52356,R,ugm-3,27.19672,R,ugm-3,40.26599,R,ugm-3,25.000,R,ugm-3 (BAM)
06-01-2019,07:00,21.83947,R,ugm-3,40.21441,R,ugm-3,73.70114,R,ugm-3,19.000,R,ugm-3 (BAM)
06-01-2019,08:00,26.56337,R,ugm-3,52.64196,R,ugm-3,93.37189,R,ugm-3,25.000,R,ugm-3 (BAM)
06-01-2019,09:00,49.77209,R,ugm-3,57.93806,R,ugm-3,134.25419,R,ugm-3,22.000,R,ugm-3 (BAM)
06-01-2019,10:00,60.69182,R,ugm-3,52.90470,R,ugm-3,145.96420,R,ugm-3,17.000,R,ugm-3 (BAM)
06-01-2019,11:00,58.15872,R,ugm-3,58.63769,R,ugm-3,147.81315,R,ugm-3,12.000,R,ugm-3 (BAM)
06-01-2019,12:00,52.61327,R,ugm-3,50.03782,R,ugm-3,130.71037,R,ugm-3,12.000,R,ugm-3 (BAM)
06-01-2019,13:00,47.82091,R,ugm-3,52.76363,R,ugm-3,126.08800,R,ugm-3,10.000,R,ugm-3 (BAM)
06-01-2019,14:00,44.43203,R,ugm-3,50.56405,R,ugm-3,118.69221,R,ugm-3,13.000,R,ugm-3 (BAM)
06-01-2019,15:00,57.23448,R,ugm-3,55.12431,R,ugm-3,142.88262,R,ugm-3,13.000,R,ugm-3 (BAM)
06-01-2019,16:00,37.07233,R,ugm-3,52.75810,R,ugm-3,109.60155,R,ugm-3,17.000,R,ugm-3 (BAM)
06-01-2019,17:00,43.06278,R,ugm-3,47.88708,R,ugm-3,113.91576,R,ugm-3,26.000,R,ugm-3 (BAM)
06-01-2019,18:00,37.24349,R,ugm-3,57.78571,R,ugm-3,114.89159,R,ugm-3,23.000,R,ugm-3 (BAM)
06-01-2019,19:00,43.33663,R,ugm-3,57.12281,R,ugm-3,123.57138,R,ugm-3,34.000,R,ugm-3 (BAM)
06-01-2019,20:00,46.38320,R,ugm-3,55.07081,R,ugm-3,126.19072,R,ugm-3,24.000,R,ugm-3 (BAM)
06-01-2019,21:00,42.27547,R,ugm-3,45.90999,R,ugm-3,110.73146,R,ugm-3,26.000,R,ugm-3 (BAM)
06-01-2019,22:00,29.02801,R,ugm-3,39.00184,R,ugm-3,83.51083,R,ugm-3,13.000,R,ugm-3 (BAM)
06-01-2019,23:00,20.19638,R,ugm-3,42.68243,R,ugm-3,73.64977,R,ugm-3,16.000,R,ugm-3 (BAM)
06-01-2019,24:00,19.30637,R,ugm-3,42.60902,R,ugm-3,72.21170,R,ugm-3,12.000,R,ugm-3 (BAM)
07-01-2019,01:00,4.66060,R,ugm-3,23.30045,R,ugm-3,30.44660,R,ugm-3,13.000,R,ugm-3 (BAM)
07-01-2019,02:00,4.24937,R,ugm-3,12.47923,R,ugm-3,18.99484,R,ugm-3,11.000,R,ugm-3 (BAM)
07-01-2019,03:00,8.12178,R,ugm-3,15.78189,R,ugm-3,28.23511,R,ugm-3,6.000,R,ugm-3 (BAM)
07-01-2019,04:00,8.77289,R,ugm-3,23.42378,R,ugm-3,36.87536,R,ugm-3,10.000,R,ugm-3 (BAM)
07-01-2019,05:00,22.44626,R,ugm-3,34.08773,R,ugm-3,68.50485,R,ugm-3,14.000,R,ugm-3 (BAM)
07-01-2019,06:00,39.61508,R,ugm-3,43.55791,R,ugm-3,104.30018,R,ugm-3,12.000,R,ugm-3 (BAM)
07-01-2019,07:00,62.12988,R,ugm-3,52.75126,R,ugm-3,148.01574,R,ugm-3,11.000,R,ugm-3 (BAM)
07-01-2019,08:00,78.61331,R,ugm-3,58.18076,R,ugm-3,178.71949,R,ugm-3,12.000,R,ugm-3 (BAM)
07-01-2019,09:00,107.02240,R,ugm-3,64.97081,R,ugm-3,229.06953,R,ugm-3,18.000,R,ugm-3 (BAM)
07-01-2019,10:00,110.48357,R,ugm-3,69.17831,R,ugm-3,238.58409,R,ugm-3,11.000,R,ugm-3 (BAM)
07-01-2019,11:00,63.84333,R,ugm-3,72.85609,R,ugm-3,170.74783,R,ugm-3,,,
07-01-2019,12:00,,,,,,,,,,,,
07-01-2019,13:00,43.83018,R,ugm-3,51.49526,R,ugm-3,118.70060,R,ugm-3,6.000,R,ugm-3 (BAM)
07-01-2019,14:00,42.80210,R,ugm-3,45.56283,R,ugm-3,111.19181,R,ugm-3,7.000,R,ugm-3 (BAM)
07-01-2019,15:00,46.91440,R,ugm-3,54.78929,R,ugm-3,126.72369,R,ugm-3,13.000,R,ugm-3 (BAM)
07-01-2019,16:00,41.08865,R,ugm-3,52.40736,R,ugm-3,115.40907,R,ugm-3,10.000,R,ugm-3 (BAM)
07-01-2019,17:00,38.27858,R,ugm-3,49.15585,R,ugm-3,107.84886,R,ugm-3,13.000,R,ugm-3 (BAM)
07-01-2019,18:00,41.49988,R,ugm-3,50.28534,R,ugm-3,113.91760,R,ugm-3,11.000,R,ugm-3 (BAM)
07-01-2019,19:00,36.32524,R,ugm-3,46.08218,R,ugm-3,101.78011,R,ugm-3,10.000,R,ugm-3 (BAM)
07-01-2019,20:00,26.79844,R,ugm-3,47.36936,R,ugm-3,88.45972,R,ugm-3,11.000,R,ugm-3 (BAM)
07-01-2019,21:00,19.80754,R,ugm-3,31.80782,R,ugm-3,62.17895,R,ugm-3,10.000,R,ugm-3 (BAM)
07-01-2019,22:00,12.30261,R,ugm-3,19.50310,R,ugm-3,38.36683,R,ugm-3,8.000,R,ugm-3 (BAM)
07-01-2019,23:00,9.45827,R,ugm-3,20.00710,R,ugm-3,34.50958,R,ugm-3,7.000,R,ugm-3 (BAM)
07-01-2019,24:00,7.26505,R,ugm-3,18.68985,R,ugm-3,29.82944,R,ugm-3,10.000,R,ugm-3 (BAM)
08-01-2019,01:00,6.44259,R,ugm-3,15.34591,R,ugm-3,25.22441,R,ugm-3,7.000,R,ugm-3 (BAM)
08-01-2019,02:00,4.34075,R,ugm-3,9.49614,R,ugm-3,16.15187,R,ugm-3,6.000,R,ugm-3 (BAM)
08-01-2019,03:00,1.85053,R,ugm-3,6.23510,R,ugm-3,9.07254,R,ugm-3,6.000,R,ugm-3 (BAM)
08-01-2019,04:00,2.26176,R,ugm-3,9.57379,R,ugm-3,13.04177,R,ugm-3,5.000,R,ugm-3 (BAM)
08-01-2019,05:00,5.17463,R,ugm-3,14.59237,R,ugm-3,22.52670,R,ugm-3,6.000,R,ugm-3 (BAM)
08-01-2019,06:00,21.45246,R,ugm-3,31.33614,R,ugm-3,64.22945,R,ugm-3,5.000,R,ugm-3 (BAM)
08-01-2019,07:00,42.52795,R,ugm-3,60.82750,R,ugm-3,126.03612,R,ugm-3,5.000,R,ugm-3 (BAM)
08-01-2019,08:00,62.16415,R,ugm-3,74.01985,R,ugm-3,169.33687,R,ugm-3,5.000,R,ugm-3 (BAM)
08-01-2019,09:00,64.56298,R,ugm-3,71.52730,R,ugm-3,170.52249,R,ugm-3,7.000,R,ugm-3 (BAM)
08-01-2019,10:00,77.51670,R,ugm-3,78.67663,R,ugm-3,197.53391,R,ugm-3,6.000,R,ugm-3 (BAM)
08-01-2019,11:00,85.36432,R,ugm-3,63.96325,R,ugm-3,194.85339,R,ugm-3,8.000,R,ugm-3 (BAM)
08-01-2019,12:00,68.81235,R,ugm-3,65.63027,R,ugm-3,171.14107,R,ugm-3,8.000,R,ugm-3 (BAM)
08-01-2019,13:00,76.42009,R,ugm-3,70.71850,R,ugm-3,187.89434,R,ugm-3,12.000,R,ugm-3 (BAM)
08-01-2019,14:00,74.70663,R,ugm-3,63.65464,R,ugm-3,178.20322,R,ugm-3,11.000,R,ugm-3 (BAM)
08-01-2019,15:00,84.54187,R,ugm-3,73.31745,R,ugm-3,202.94650,R,ugm-3,12.000,R,ugm-3 (BAM)
08-01-2019,16:00,62.57537,R,ugm-3,72.04904,R,ugm-3,167.99661,R,ugm-3,12.000,R,ugm-3 (BAM)
08-01-2019,17:00,52.22611,R,ugm-3,78.12348,R,ugm-3,158.20239,R,ugm-3,15.000,R,ugm-3 (BAM)
08-01-2019,18:00,43.48749,R,ugm-3,72.91350,R,ugm-3,139.59338,R,ugm-3,16.000,R,ugm-3 (BAM)
08-01-2019,19:00,54.89910,R,ugm-3,73.71566,R,ugm-3,157.89310,R,ugm-3,23.000,R,ugm-3 (BAM)
08-01-2019,20:00,57.94905,R,ugm-3,77.64774,R,ugm-3,166.50170,R,ugm-3,14.000,R,ugm-3 (BAM)
08-01-2019,21:00,39.54654,R,ugm-3,61.89364,R,ugm-3,122.53082,R,ugm-3,19.000,R,ugm-3 (BAM)
08-01-2019,22:00,32.89834,R,ugm-3,61.62306,R,ugm-3,112.06647,R,ugm-3,18.000,R,ugm-3 (BAM)
08-01-2019,23:00,18.36824,R,ugm-3,45.18930,R,ugm-3,73.35354,R,ugm-3,13.000,R,ugm-3 (BAM)
08-01-2019,24:00,9.66389,R,ugm-3,35.13276,R,ugm-3,49.95051,R,ugm-3,12.000,R,ugm-3 (BAM)
09-01-2019,01:00,5.98567,R,ugm-3,27.67787,R,ugm-3,36.85577,R,ugm-3,9.000,R,ugm-3 (BAM)
09-01-2019,02:00,2.23892,R,ugm-3,19.02495,R,ugm-3,22.45791,R,ugm-3,8.000,R,ugm-3 (BAM)
09-01-2019,03:00,6.27125,R,ugm-3,21.53940,R,ugm-3,31.15518,R,ugm-3,10.000,R,ugm-3 (BAM)
09-01-2019,04:00,8.77289,R,ugm-3,19.92528,R,ugm-3,33.37686,R,ugm-3,9.000,R,ugm-3 (BAM)
09-01-2019,05:00,10.28073,R,ugm-3,24.07166,R,ugm-3,39.83523,R,ugm-3,11.000,R,ugm-3 (BAM)
09-01-2019,06:00,37.79882,R,ugm-3,42.84487,R,ugm-3,100.80224,R,ugm-3,8.000,R,ugm-3 (BAM)
09-01-2019,07:00,92.59510,R,ugm-3,81.99910,R,ugm-3,223.97628,R,ugm-3,12.000,R,ugm-3 (BAM)
09-01-2019,08:00,97.25570,R,ugm-3,87.04635,R,ugm-3,236.16968,R,ugm-3,10.000,R,ugm-3 (BAM)
09-01-2019,09:00,111.75153,R,ugm-3,82.90316,R,ugm-3,254.25312,R,ugm-3,10.000,R,ugm-3 (BAM)
09-01-2019,10:00,91.77265,R,ugm-3,74.16680,R,ugm-3,214.88289,R,ugm-3,21.000,R,ugm-3 (BAM)
09-01-2019,11:00,95.30236,R,ugm-3,64.05295,R,ugm-3,210.18120,R,ugm-3,9.000,R,ugm-3 (BAM)
09-01-2019,12:00,99.99723,R,ugm-3,61.81428,R,ugm-3,215.14123,R,ugm-3,11.000,R,ugm-3 (BAM)
09-01-2019,13:00,90.84738,R,ugm-3,73.20884,R,ugm-3,212.50621,R,ugm-3,11.000,R,ugm-3 (BAM)
09-01-2019,14:00,110.55211,R,ugm-3,89.39227,R,ugm-3,258.90314,R,ugm-3,8.000,R,ugm-3 (BAM)
09-01-2019,15:00,119.05085,R,ugm-3,92.58448,R,ugm-3,275.12657,R,ugm-3,8.000,R,ugm-3 (BAM)
09-01-2019,16:00,78.57904,R,ugm-3,68.76990,R,ugm-3,189.25608,R,ugm-3,6.000,R,ugm-3 (BAM)
09-01-2019,17:00,79.67565,R,ugm-3,89.25358,R,ugm-3,211.42121,R,ugm-3,13.000,R,ugm-3 (BAM)
09-01-2019,18:00,61.30742,R,ugm-3,80.94094,R,ugm-3,174.94433,R,ugm-3,16.000,R,ugm-3 (BAM)
09-01-2019,19:00,64.04895,R,ugm-3,68.10894,R,ugm-3,166.31595,R,ugm-3,12.000,R,ugm-3 (BAM)
09-01-2019,20:00,68.57247,R,ugm-3,73.15970,R,ugm-3,178.30269,R,ugm-3,19.000,R,ugm-3 (BAM)
09-01-2019,21:00,61.68438,R,ugm-3,63.98451,R,ugm-3,158.56591,R,ugm-3,13.000,R,ugm-3 (BAM)
09-01-2019,22:00,46.88013,R,ugm-3,51.44718,R,ugm-3,123.32904,R,ugm-3,13.000,R,ugm-3 (BAM)
09-01-2019,23:00,28.20347,R,ugm-3,59.93421,R,ugm-3,103.17892,R,ugm-3,15.000,R,ugm-3 (BAM)
09-01-2019,24:00,21.07550,R,ugm-3,38.93343,R,ugm-3,71.24874,R,ugm-3,14.000,R,ugm-3 (BAM)
10-01-2019,01:00,16.22071,R,ugm-3,34.44015,R,ugm-3,59.31155,R,ugm-3,18.000,R,ugm-3 (BAM)
10-01-2019,02:00,3.70106,R,ugm-3,30.43681,R,ugm-3,36.11169,R,ugm-3,20.000,R,ugm-3 (BAM)
10-01-2019,03:00,7.98470,R,ugm-3,37.41917,R,ugm-3,49.66221,R,ugm-3,19.000,R,ugm-3 (BAM)
10-01-2019,04:00,5.62013,R,ugm-3,24.88774,R,ugm-3,33.50516,R,ugm-3,19.000,R,ugm-3 (BAM)
10-01-2019,05:00,12.74810,R,ugm-3,26.33505,R,ugm-3,45.88187,R,ugm-3,14.000,R,ugm-3 (BAM)
10-01-2019,06:00,50.99242,R,ugm-3,47.02983,R,ugm-3,125.21712,R,ugm-3,15.000,R,ugm-3 (BAM)
10-01-2019,07:00,90.02492,R,ugm-3,69.15713,R,ugm-3,207.19342,R,ugm-3,22.000,R,ugm-3 (BAM)
10-01-2019,08:00,110.92907,R,ugm-3,76.25432,R,ugm-3,246.34319,R,ugm-3,24.000,R,ugm-3 (BAM)
10-01-2019,09:00,88.34574,R,ugm-3,61.47833,R,ugm-3,196.93991,R,ugm-3,34.000,R,ugm-3 (BAM)
10-01-2019,10:00,63.98041,R,ugm-3,50.57398,R,ugm-3,148.67591,R,ugm-3,29.000,R,ugm-3 (BAM)
10-01-2019,11:00,79.84700,R,ugm-3,59.54357,R,ugm-3,181.97392,R,ugm-3,27.000,R,ugm-3 (BAM)
10-01-2019,12:00,106.16567,R,ugm-3,69.78318,R,ugm-3,232.56827,R,ugm-3,29.000,R,ugm-3 (BAM)
10-01-2019,13:00,104.82917,R,ugm-3,67.11997,R,ugm-3,227.85580,R,ugm-3,24.000,R,ugm-3 (BAM)
10-01-2019,14:00,88.38001,R,ugm-3,76.39177,R,ugm-3,211.90589,R,ugm-3,24.000,R,ugm-3 (BAM)
10-01-2019,15:00,104.86344,R,ugm-3,78.25308,R,ugm-3,239.04144,R,ugm-3,17.000,R,ugm-3 (BAM)
10-01-2019,16:00,69.66908,R,ugm-3,63.29064,R,ugm-3,170.11507,R,ugm-3,18.000,R,ugm-3 (BAM)
10-01-2019,17:00,61.13607,R,ugm-3,74.66548,R,ugm-3,168.40615,R,ugm-3,22.000,R,ugm-3 (BAM)
10-01-2019,18:00,48.59358,R,ugm-3,63.65435,R,ugm-3,138.16347,R,ugm-3,24.000,R,ugm-3 (BAM)
10-01-2019,19:00,62.88380,R,ugm-3,68.41248,R,ugm-3,164.83295,R,ugm-3,24.000,R,ugm-3 (BAM)
10-01-2019,20:00,68.02416,R,ugm-3,65.50209,R,ugm-3,169.80435,R,ugm-3,27.000,R,ugm-3 (BAM)
10-01-2019,21:00,50.68400,R,ugm-3,57.18661,R,ugm-3,134.90099,R,ugm-3,27.000,R,ugm-3 (BAM)
10-01-2019,22:00,35.94829,R,ugm-3,55.75262,R,ugm-3,110.87256,R,ugm-3,32.000,R,ugm-3 (BAM)
10-01-2019,23:00,30.94500,R,ugm-3,45.71362,R,ugm-3,93.16195,R,ugm-3,35.000,R,ugm-3 (BAM)
10-01-2019,24:00,10.62342,R,ugm-3,31.09463,R,ugm-3,47.38365,R,ugm-3,24.000,R,ugm-3 (BAM)
11-01-2019,01:00,5.20890,R,ugm-3,27.58457,R,ugm-3,35.57144,R,ugm-3,19.000,R,ugm-3 (BAM)
11-01-2019,02:00,2.19322,R,ugm-3,23.00426,R,ugm-3,26.36716,R,ugm-3,19.000,R,ugm-3 (BAM)
11-01-2019,03:00,3.15276,R,ugm-3,16.39452,R,ugm-3,21.22868,R,ugm-3,14.000,R,ugm-3 (BAM)
11-01-2019,04:00,3.52972,R,ugm-3,14.93415,R,ugm-3,20.34631,R,ugm-3,13.000,R,ugm-3 (BAM)
11-01-2019,05:00,9.08131,R,ugm-3,18.51543,R,ugm-3,32.43991,R,ugm-3,15.000,R,ugm-3 (BAM)
11-01-2019,06:00,35.46852,R,ugm-3,36.44744,R,ugm-3,90.83175,R,ugm-3,17.000,R,ugm-3 (BAM)
11-01-2019,07:00,96.98155,R,ugm-3,56.88820,R,ugm-3,205.59117,R,ugm-3,21.000,R,ugm-3 (BAM)
11-01-2019,08:00,82.04022,R,ugm-3,63.91534,R,ugm-3,189.70859,R,ugm-3,25.000,R,ugm-3 (BAM)
11-01-2019,09:00,108.15327,R,ugm-3,68.51319,R,ugm-3,234.34590,R,ugm-3,21.000,R,ugm-3 (BAM)
11-01-2019,10:00,90.26481,R,ugm-3,60.07623,R,ugm-3,198.48034,R,ugm-3,18.000,R,ugm-3 (BAM)
11-01-2019,11:00,84.26771,R,ugm-3,65.79409,R,ugm-3,195.00278,R,ugm-3,19.000,R,ugm-3 (BAM)
11-01-2019,12:00,100.92250,R,ugm-3,59.61725,R,ugm-3,214.36292,R,ugm-3,24.000,R,ugm-3 (BAM)
11-01-2019,13:00,105.06906,R,ugm-3,74.95509,R,ugm-3,236.05873,R,ugm-3,20.000,R,ugm-3 (BAM)
11-01-2019,14:00,86.90643,R,ugm-3,61.17717,R,ugm-3,194.43184,R,ugm-3,16.000,R,ugm-3 (BAM)
11-01-2019,15:00,77.10547,R,ugm-3,58.19446,R,ugm-3,176.42120,R,ugm-3,18.000,R,ugm-3 (BAM)
11-01-2019,16:00,67.44159,R,ugm-3,56.87011,R,ugm-3,160.27910,R,ugm-3,19.000,R,ugm-3 (BAM)
11-01-2019,17:00,87.52328,R,ugm-3,71.49449,R,ugm-3,205.69498,R,ugm-3,22.000,R,ugm-3 (BAM)
11-01-2019,18:00,66.24217,R,ugm-3,62.91341,R,ugm-3,164.48332,R,ugm-3,21.000,R,ugm-3 (BAM)
11-01-2019,19:00,124.05414,R,ugm-3,76.31260,R,ugm-3,266.52629,R,ugm-3,37.000,R,ugm-3 (BAM)
11-01-2019,20:00,98.59220,R,ugm-3,72.63683,R,ugm-3,223.80942,R,ugm-3,47.000,R,ugm-3 (BAM)
11-01-2019,21:00,102.19045,R,ugm-3,64.62820,R,ugm-3,221.31804,R,ugm-3,47.000,R,ugm-3 (BAM)
11-01-2019,22:00,84.19918,R,ugm-3,64.08255,R,ugm-3,193.18615,R,ugm-3,44.000,R,ugm-3 (BAM)
11-01-2019,23:00,55.07044,R,ugm-3,64.83532,R,ugm-3,149.27549,R,ugm-3,20.000,R,ugm-3 (BAM)
11-01-2019,24:00,22.54907,R,ugm-3,50.08043,R,ugm-3,84.65519,R,ugm-3,20.000,R,ugm-3 (BAM)
12-01-2019,01:00,13.84472,R,ugm-3,42.86321,R,ugm-3,64.09147,R,ugm-3,21.000,R,ugm-3 (BAM)
12-01-2019,02:00,8.40735,R,ugm-3,38.78439,R,ugm-3,51.67549,R,ugm-3,18.000,R,ugm-3 (BAM)
12-01-2019,03:00,6.27125,R,ugm-3,32.62633,R,ugm-3,42.24211,R,ugm-3,17.000,R,ugm-3 (BAM)
12-01-2019,04:00,8.63581,R,ugm-3,33.21452,R,ugm-3,46.45591,R,ugm-3,11.000,R,ugm-3 (BAM)
12-01-2019,05:00,10.28073,R,ugm-3,29.07966,R,ugm-3,44.84322,R,ugm-3,12.000,R,ugm-3 (BAM)
12-01-2019,06:00,11.68576,R,ugm-3,27.70564,R,ugm-3,45.62356,R,ugm-3,10.000,R,ugm-3 (BAM)
12-01-2019,07:00,20.01315,R,ugm-3,35.53798,R,ugm-3,66.22439,R,ugm-3,8.000,R,ugm-3 (BAM)
12-01-2019,08:00,33.34383,R,ugm-3,50.68115,R,ugm-3,101.80764,R,ugm-3,9.000,R,ugm-3 (BAM)
12-01-2019,09:00,34.54325,R,ugm-3,42.23523,R,ugm-3,95.20081,R,ugm-3,7.000,R,ugm-3 (BAM)
12-01-2019,10:00,36.32524,R,ugm-3,48.76285,R,ugm-3,104.46078,R,ugm-3,7.000,R,ugm-3 (BAM)
12-01-2019,11:00,45.09813,R,ugm-3,47.22438,R,ugm-3,116.37389,R,ugm-3,8.000,R,ugm-3 (BAM)
12-01-2019,12:00,36.63367,R,ugm-3,48.34196,R,ugm-3,104.51280,R,ugm-3,7.000,R,ugm-3 (BAM)
12-01-2019,13:00,36.49659,R,ugm-3,48.91630,R,ugm-3,104.87696,R,ugm-3,4.000,R,ugm-3 (BAM)
12-01-2019,14:00,40.47181,R,ugm-3,47.81520,R,ugm-3,109.87110,R,ugm-3,4.000,R,ugm-3 (BAM)
12-01-2019,15:00,47.70259,R,ugm-3,54.31169,R,ugm-3,127.45464,R,ugm-3,6.000,R,ugm-3 (BAM)
12-01-2019,16:00,42.11672,R,ugm-3,47.26987,R,ugm-3,111.84795,R,ugm-3,7.000,R,ugm-3 (BAM)
12-01-2019,17:00,43.07626,R,ugm-3,59.94867,R,ugm-3,125.99801,R,ugm-3,7.000,R,ugm-3 (BAM)
12-01-2019,18:00,57.98332,R,ugm-3,66.17197,R,ugm-3,155.07848,R,ugm-3,13.000,R,ugm-3 (BAM)
12-01-2019,19:00,43.17906,R,ugm-3,56.72172,R,ugm-3,122.92870,R,ugm-3,10.000,R,ugm-3 (BAM)
12-01-2019,20:00,33.92641,R,ugm-3,46.14632,R,ugm-3,98.16608,R,ugm-3,10.000,R,ugm-3 (BAM)